Change the Weather History Date:

Tuesday, September 24, 2013

  Actual Average Record
Temperature  
Mean Temperature 61 °F -  
Max Temperature 72 °F 73 °F 93 °F (2001)
Min Temperature 49 °F 45 °F 30 °F (2000)
Degree Days  
Heating Degree Days 4 7  
Month to date heating degree days 40 92  
Since 1 July heating degree days 40 113  
Cooling Degree Days 0 1  
Month to date cooling degree days 99 58  
Year to date cooling degree days 1138 675  
Growing Degree Days 12 (Base 50)    
Moisture  
Dew Point 34 °F    
Average Humidity 44    
Maximum Humidity 66    
Minimum Humidity 22    
Precipitation  
Precipitation T in 0.03 in 0.01 in (1993)
Month to date precipitation 0.73 0.44  
Year to date precipitation 3.92 7.32  
Sea Level Pressure  
Sea Level Pressure 29.75 in    
Wind  
Wind Speed 13 mph (SSW)    
Max Wind Speed 37 mph    
Max Gust Speed 44 mph    
Visibility 10 miles    
Events Rain    
T = Trace of Precipitation, MM = Missing Value Source: NWS Daily Summary

Daily Weather History Graph

Daily Weather History Graph

Search for Another Location

Airport or City:

Trip Planner

Search our weather history database for the weather conditions in past years. The results will help you decide how hot, cold, wet, or windy it might be!

Date:

Astronomy

Sep. 24, 2013 Rise Set
Actual Time 7:27 AM MDT 7:31 PM MDT
Civil Twilight 6:59 AM MDT 7:59 PM MDT
Nautical Twilight 6:26 AM MDT 8:31 PM MDT
Astronomical Twilight 5:53 AM MDT 9:05 PM MDT
Moon 10:45 PM MDT (9/24) 12:52 PM MDT (9/24)
Length of Visible Light 12h 59m
Length of Day
12h 03m
Waning Gibbous, 72% of the Moon is Illuminated
Sep 24
Waning Gibbous
Sep 26
Last Quarter
Oct 4
New
Oct 11
First Quarter
Oct 18
Full

Hourly Weather History & Observations

Time (MDT) Temp. Dew Point Humidity Pressure Visibility Wind Dir Wind Speed Gust Speed Precip Events Conditions
12:53 AM 52.0 °F 33.1 °F 49% 29.87 in 10.0 mi South 9.2 mph - N/A   Clear
1:53 AM 60.1 °F 30.9 °F 33% 29.83 in 10.0 mi South 11.5 mph - N/A   Clear
2:53 AM 55.9 °F 30.0 °F 37% 29.83 in 10.0 mi SSE 10.4 mph - N/A   Clear
3:53 AM 57.0 °F 30.0 °F 36% 29.80 in 10.0 mi South 10.4 mph - N/A   Clear
4:53 AM 59.0 °F 30.0 °F 33% 29.79 in 10.0 mi South 12.7 mph - N/A   Mostly Cloudy
5:53 AM 57.9 °F 30.0 °F 35% 29.78 in 10.0 mi SSE 11.5 mph - N/A   Partly Cloudy
6:53 AM 62.1 °F 30.0 °F 30% 29.76 in 10.0 mi South 11.5 mph - N/A   Mostly Cloudy
7:53 AM 63.0 °F 30.9 °F 30% 29.76 in 10.0 mi South 11.5 mph - N/A   Partly Cloudy
8:53 AM 66.0 °F 30.9 °F 27% 29.77 in 10.0 mi South 16.1 mph 23.0 mph N/A   Mostly Cloudy
9:53 AM 69.1 °F 30.0 °F 23% 29.74 in 10.0 mi South 17.3 mph 26.5 mph N/A   Clear
10:53 AM 69.1 °F 28.9 °F 22% 29.75 in 10.0 mi South 15.0 mph 23.0 mph N/A   Partly Cloudy
11:53 AM 72.0 °F 30.0 °F 21% 29.75 in 10.0 mi SW 12.7 mph 21.9 mph N/A   Overcast
12:53 PM 68.0 °F 30.0 °F 24% 29.73 in 10.0 mi SW 3.5 mph - N/A   Overcast
1:53 PM 64.0 °F 41.0 °F 43% 29.71 in 9.0 mi South 13.8 mph 23.0 mph 0.00 in Rain Light Rain
2:53 PM 68.0 °F 37.0 °F 32% 29.68 in 10.0 mi SW 24.2 mph 32.2 mph 0.00 in   Overcast
3:53 PM 64.0 °F 37.9 °F 38% 29.69 in 10.0 mi West 15.0 mph 26.5 mph N/A   Overcast
4:53 PM 64.0 °F 43.0 °F 46% 29.69 in 10.0 mi West 33.4 mph 42.6 mph N/A   Partly Cloudy
5:53 PM 57.9 °F 39.0 °F 49% 29.76 in 10.0 mi West 17.3 mph 25.3 mph N/A   Partly Cloudy
6:53 PM 55.9 °F 39.0 °F 53% 29.74 in 10.0 mi SW 6.9 mph - N/A   Clear
7:53 PM 53.1 °F 39.0 °F 59% 29.73 in 10.0 mi SSW 6.9 mph - N/A   Clear
8:53 PM 51.1 °F 37.9 °F 61% 29.73 in 10.0 mi South 6.9 mph - N/A   Partly Cloudy
9:53 PM 52.0 °F 37.9 °F 59% 29.71 in 10.0 mi WSW 6.9 mph - N/A   Clear
10:53 PM 52.0 °F 39.0 °F 61% 29.69 in 10.0 mi WSW 9.2 mph - N/A   Overcast
11:53 PM 50.0 °F 39.0 °F 66% 29.70 in 10.0 mi SW 5.8 mph - N/A   Partly Cloudy